Location: Montr�al
(45.5000°N, 73.5830°W)
Time: 22:14:35
(UTC-04:00)

ISS - Visible Passes

Search period start: 23 March 2017 00:00
Search period end: 02 April 2017 00:00
Orbit: 399 x 409 km, 51.6° (Epoch: 24 March)

Date Brightness Start Highest point End Pass type
(mag) Time Alt. Az. Time Alt. Az. Time Alt. Az.
23 Mar -2.3 05:40:54 20° SW 05:40:54 20° SW 05:43:23 10° S visible
24 Mar -1.1 04:51:36 11° SSE 04:51:36 11° SSE 04:51:44 10° SSE visible
26 Mar -1.2 21:18:02 10° SW 21:18:22 12° SW 21:18:22 12° SW visible
27 Mar -2.7 20:26:09 10° SSW 20:28:54 25° SE 20:29:16 24° SE visible
27 Mar -0.6 22:01:57 10° WSW 22:01:58 10° WSW 22:01:58 10° WSW visible
28 Mar -3.9 21:09:29 10° WSW 21:12:35 80° WSW 21:12:35 80° WSW visible
29 Mar -3.7 20:17:11 10° SW 20:20:22 53° SE 20:22:57 14° ENE visible
29 Mar -1.5 21:53:53 10° W 21:55:39 25° WNW 21:55:39 25° WNW visible
30 Mar -3.0 21:01:13 10° W 21:04:24 49° NNW 21:05:46 28° NE visible
31 Mar -3.7 20:08:39 10° WSW 20:11:55 76° NNW 20:15:11 10° ENE visible
31 Mar -1.9 21:45:50 10° WNW 21:48:24 28° NNW 21:48:24 28° NNW visible
01 Apr -2.3 20:53:05 10° W 20:56:06 33° NNW 20:58:15 16° NE visible
01 Apr -0.5 22:30:16 10° NW 22:30:53 14° NW 22:30:53 14° NW visible
